ギャラッド彗星

C/2006 L1 ( Garradd )

English version
Home page
Total 6,336 html files since Dec. 4, 1995
Updated on April 21, 2007

---------------------------------------------------------------------

・ プロフィール

発見日 2006年6月4日
発見光度 17.9等
発見者 Gordon J. Garradd (Siding Spring Survey)

・ 写真集

・ 軌道要素

The following orbital elements are taken from MPC 58538:

Epoch 2006 Nov. 1.0 TT = JDT 2454040.5
T 2006 Oct. 18.0025 TT                                  MPC
q   1.462071             (2000.0)            P               Q
z  +0.001827       Peri.  338.4098      -0.4781317      +0.6543288
 +/-0.000003       Node   101.7602      +0.8676676      +0.2484795
e   0.997329       Incl.  143.2423      +0.1361731      +0.7142211
From 477 observations 2006 June 4-2007 Jan. 3, mean residual 0".6.

・ 星図

・ 光度変化

        m1 = 4.0 + 5 logΔ + 30.0 log r(t - 20)

---------------------------------------------------------------------

軌道要素はMPCのEphemerides and Orbital Elementsに掲載されたものです。
星図は StellaNavigator Ver.2.0 for Windows (アストロアーツ 編著 / アスキー出版局刊) で作成したものです。
光度グラフはComet for Windowsで作成したものです。

---------------------------------------------------------------------

Copyright(C) 1995-2008 Seiichi Yoshida (comet@aerith.net). All rights reserved.